TimePST,TemperatureF,Dew PointF,Humidity,Sea Level PressureIn,VisibilityMPH,Wind Direction,Wind SpeedMPH,Gust SpeedMPH,PrecipitationIn,Events,Conditions,WindDirDegrees,DateUTC
12:55 AM,45.0,39.0,80,29.91,10.0,Calm,Calm,-,N/A,,Clear,0,2013-12-03 08:55:00
1:55 AM,44.1,37.9,79,29.90,10.0,Calm,Calm,-,N/A,,Clear,0,2013-12-03 09:55:00
2:55 AM,44.1,37.0,76,29.91,10.0,Calm,Calm,-,N/A,,Clear,0,2013-12-03 10:55:00
3:24 AM,44.6,35.6,71,29.86,10.0,NE,3.5,-,N/A,,Partly Cloudy,40,2013-12-03 11:24:00
3:55 AM,45.0,36.0,71,29.88,10.0,Calm,Calm,-,N/A,,Clear,0,2013-12-03 11:55:00
4:55 AM,43.0,36.0,76,29.87,10.0,Calm,Calm,-,N/A,,Clear,0,2013-12-03 12:55:00
5:55 AM,42.1,36.0,79,29.87,10.0,Calm,Calm,-,N/A,,Clear,0,2013-12-03 13:55:00
6:55 AM,43.0,36.0,76,29.87,10.0,Calm,Calm,-,N/A,,Clear,0,2013-12-03 14:55:00
7:55 AM,46.0,39.0,76,29.89,10.0,Calm,Calm,-,N/A,,Clear,0,2013-12-03 15:55:00
8:55 AM,55.9,39.0,53,29.89,10.0,Calm,Calm,-,N/A,,Clear,0,2013-12-03 16:55:00
9:55 AM,60.1,43.0,53,29.90,10.0,NW,3.5,-,N/A,,Clear,310,2013-12-03 17:55:00
10:55 AM,62.1,48.9,62,29.87,9.0,Calm,Calm,-,N/A,,Clear,0,2013-12-03 18:55:00
11:55 AM,64.0,48.9,58,29.83,9.0,SSW,6.9,-,N/A,,Clear,200,2013-12-03 19:55:00
12:55 PM,63.0,53.1,70,29.81,6.0,SW,10.4,-,N/A,,Haze,230,2013-12-03 20:55:00
1:55 PM,63.0,52.0,67,29.79,10.0,SW,11.5,-,N/A,,Partly Cloudy,220,2013-12-03 21:55:00
2:55 PM,61.0,53.1,75,29.79,6.0,SSW,11.5,-,N/A,,Haze,210,2013-12-03 22:55:00
3:25 PM,60.8,53.6,77,29.75,9.0,SSW,8.1,-,N/A,,Haze,200,2013-12-03 23:25:00
3:55 PM,61.0,52.0,72,29.78,10.0,SSW,10.4,-,N/A,,Haze,200,2013-12-03 23:55:00
4:55 PM,60.1,52.0,75,29.76,10.0,South,3.5,-,N/A,,Haze,190,2013-12-04 00:55:00
5:55 PM,57.9,52.0,81,29.75,10.0,West,5.8,-,N/A,,Mostly Cloudy,260,2013-12-04 01:55:00
6:55 PM,57.9,44.1,60,29.76,10.0,West,15.0,19.6,N/A,,Partly Cloudy,270,2013-12-04 02:55:00
7:55 PM,55.9,41.0,57,29.78,10.0,WNW,15.0,-,N/A,,Scattered Clouds,290,2013-12-04 03:55:00
8:55 PM,54.0,42.1,64,29.78,10.0,WNW,13.8,23.0,N/A,,Clear,290,2013-12-04 04:55:00
9:55 PM,53.1,42.1,66,29.78,10.0,West,13.8,-,N/A,,Clear,270,2013-12-04 05:55:00
10:55 PM,53.1,42.1,66,29.78,10.0,Calm,Calm,-,N/A,,Clear,0,2013-12-04 06:55:00
11:55 PM,50.0,41.0,71,29.79,10.0,Calm,Calm,-,N/A,,Partly Cloudy,0,2013-12-04 07:55:00